カタログに戻る

QIANFAN-129

運用中通信PO
NORAD 69075·PAYLOAD·🇨🇳 China

打ち上げ May 12, 2026 から Taiyuan Satellite Launch Center

Loading…

次のパス (今後24時間)

TLE

最新Source: Space-Track

元期: Sep 14, 2026, 20:41 UTC

1 69075U 26104C   26257.86232810  .00000120  00000-0  16738-3 0  9993
2 69075  88.9910 332.2873 0002290 109.6483 250.4915 13.51022964 17283

AllMySatでQIANFAN-129をリアルタイム追跡

Download on the App Store